{"data":{"norad_id":48061,"intl_designator":"2021-025V","name":"ONEWEB-0163","alt_names":[],"object_type":"PAYLOAD","status":"ACTIVE","operator":null,"country":"UK","launch_date":"2021-03-25","launch_site_code":"VOSTO","launch_vehicle":null,"mission":null,"orbit_class":"UNKNOWN","rcs_meters":null,"size_class":null,"mass_kg":null,"dimensions":null,"purposes":["comms"],"wikipedia_slug":null,"has_3d_model":false,"image_url":null,"decayed_at":null,"tle_current":{"epoch":"2026-05-25T04:39:02.503008Z","epoch_age_seconds":68869,"freshness":"FRESH","line1":"1 48061U 21025V   26145.19377897  .00000192  00000+0  49122-3 0  9990","line2":"2 48061  87.8944 324.8005 0001604  99.7478 260.3832 13.13468833250661","mean_motion":13.13468833,"eccentricity":0.0001604,"inclination_deg":87.8944,"raan_deg":324.8005,"arg_perigee_deg":99.7478,"mean_anomaly_deg":260.3832,"bstar":0.00049122,"rev_number":25066,"period_min":109.63335892112,"perigee_km":1208.5527941356,"apogee_km":1210.9869946673,"semimajor_km":7587.9068944014,"source":"CELESTRAK","updated_at":"2026-05-25T13:38:22.391662Z"}}}